Skip Navigation
Skip Navigation

Today's Weather Data

Time Wind Dir Wind Spd
mph
Wind Gust
mph
Hum In
%
Humidity
%
Temp In
F
Temp
F
Raw Barom
in
Tot Rain
in
UV Solar
W/sqm
DailyRain
in
HourRain
in
24HrRain
in
RainRate
in/hr
4/28/2017 10:37:02a 191 5 28 22 23 75.9 70.7 29.84 23.44 3.9 823 0.00 0.00 0.00 0.000
4/28/2017 10:38:02a 235 5 28 22 23 75.9 70.8 29.83 23.44 3.9 823 0.00 0.00 0.00 0.000
4/28/2017 10:39:02a 270 22 28 22 23 75.9 70.8 29.83 23.44 3.9 824 0.00 0.00 0.00 0.000
4/28/2017 10:40:02a 301 20 28 22 23 75.9 70.9 29.84 23.44 3.9 828 0.00 0.00 0.00 0.000
4/28/2017 10:41:02a 309 11 28 22 22 75.9 70.9 29.84 23.44 4.0 830 0.00 0.00 0.00 0.000
4/28/2017 10:42:03a 335 12 28 22 22 75.9 70.9 29.84 23.44 4.0 830 0.00 0.00 0.00 0.000
4/28/2017 10:43:03a 304 7 28 22 22 75.9 70.8 29.84 23.44 4.0 838 0.00 0.00 0.00 0.000
4/28/2017 10:44:03a 297 0 28 22 23 76.1 70.9 29.84 23.44 4.0 842 0.00 0.00 0.00 0.000
4/28/2017 10:45:03a 134 0 28 22 22 76.1 70.9 29.84 23.44 4.0 840 0.00 0.00 0.00 0.000
4/28/2017 10:46:03a 282 1 28 22 22 76.1 70.9 29.84 23.44 4.1 844 0.00 0.00 0.00 0.000
4/28/2017 10:47:06a 359 2 3 22 23 75.9 71.0 29.83 23.44 4.1 842 0.00 0.00 0.00 0.000
4/28/2017 10:48:06a 2 0 3 22 23 75.9 71.1 29.84 23.44 4.1 849 0.00 0.00 0.00 0.000
4/28/2017 10:49:06a 279 12 12 22 23 75.9 71.1 29.84 23.44 4.1 851 0.00 0.00 0.00 0.000
4/28/2017 10:50:09a 330 2 13 22 23 75.9 71.2 29.84 23.44 4.1 851 0.00 0.00 0.00 0.000
4/28/2017 10:51:12a 285 18 18 22 23 75.9 71.3 29.83 23.44 4.1 851 0.00 0.00 0.00 0.000
4/28/2017 10:52:12a 296 21 30 22 22 75.9 71.5 29.84 23.44 4.2 853 0.00 0.00 0.00 0.000
4/28/2017 10:53:12a 272 10 30 22 21 75.9 71.5 29.84 23.44 4.2 856 0.00 0.00 0.00 0.000
4/28/2017 10:54:12a 265 16 30 22 21 75.9 71.5 29.84 23.44 4.2 860 0.00 0.00 0.00 0.000
4/28/2017 10:55:12a 315 11 30 22 22 76.1 71.5 29.84 23.44 4.3 860 0.00 0.00 0.00 0.000
4/28/2017 10:56:13a 330 11 30 22 22 76.1 71.5 29.84 23.44 4.3 865 0.00 0.00 0.00 0.000
4/28/2017 10:57:13a 347 10 30 22 22 76.1 71.5 29.84 23.44 4.3 865 0.00 0.00 0.00 0.000
4/28/2017 10:58:16a 11 9 30 22 22 76.1 71.4 29.84 23.44 4.3 867 0.00 0.00 0.00 0.000
4/28/2017 10:59:16a 330 2 30 22 22 76.1 71.3 29.84 23.44 4.3 870 0.00 0.00 0.00 0.000
4/28/2017 11:00:16a 253 6 30 22 22 75.9 71.2 29.84 23.44 4.4 870 0.00 0.00 0.00 0.000
4/28/2017 11:01:16a 278 11 30 22 22 75.9 71.1 29.84 23.44 4.4 874 0.00 0.00 0.00 0.000
4/28/2017 11:02:16a 266 13 15 22 22 75.9 71.1 29.84 23.44 4.4 877 0.00 0.00 0.00 0.000
4/28/2017 11:03:19a 306 5 15 22 23 75.9 71.1 29.84 23.44 4.4 877 0.00 0.00 0.00 0.000
4/28/2017 11:04:19a 240 9 15 22 23 75.9 71.1 29.84 23.44 4.4 877 0.00 0.00 0.00 0.000
4/28/2017 11:05:19a 216 0 15 22 23 75.9 71.3 29.84 23.44 4.4 881 0.00 0.00 0.00 0.000
4/28/2017 11:06:19a 213 0 15 22 22 76.1 71.4 29.84 23.44 4.5 881 0.00 0.00 0.00 0.000
4/28/2017 11:07:19a 214 0 15 22 22 76.1 71.5 29.84 23.44 4.5 886 0.00 0.00 0.00 0.000
4/28/2017 11:08:19a 207 1 15 22 22 76.1 71.6 29.83 23.44 4.5 888 0.00 0.00 0.00 0.000
4/28/2017 11:09:19a 260 13 15 22 22 76.1 71.8 29.83 23.44 4.5 889 0.00 0.00 0.00 0.000
4/28/2017 11:10:19a 268 2 15 22 22 76.1 71.8 29.84 23.44 4.5 891 0.00 0.00 0.00 0.000
4/28/2017 11:11:19a 287 1 15 22 22 76.1 71.8 29.83 23.44 4.5 891 0.00 0.00 0.00 0.000
4/28/2017 11:12:19a 9 4 15 22 22 76.1 71.9 29.83 23.44 4.6 893 0.00 0.00 0.00 0.000
4/28/2017 11:13:20a 8 7 15 22 22 76.1 71.9 29.83 23.44 4.6 893 0.00 0.00 0.00 0.000
4/28/2017 11:14:20a 293 14 18 22 23 76.1 71.9 29.83 23.44 4.6 898 0.00 0.00 0.00 0.000
4/28/2017 11:15:20a 344 3 18 22 23 76.1 71.9 29.83 23.44 4.6 898 0.00 0.00 0.00 0.000
4/28/2017 11:16:20a 2 17 18 22 23 76.1 72.1 29.83 23.44 4.6 902 0.00 0.00 0.00 0.000
4/28/2017 11:17:20a 52 10 15 22 22 76.1 72.1 29.83 23.44 4.7 904 0.00 0.00 0.00 0.000
4/28/2017 11:18:20a 19 11 15 22 22 76.1 72.0 29.83 23.44 4.7 905 0.00 0.00 0.00 0.000
4/28/2017 11:19:20a 16 10 16 22 22 76.1 71.9 29.83 23.44 4.7 912 0.00 0.00 0.00 0.000
4/28/2017 11:20:20a 343 5 16 22 22 76.1 71.8 29.83 23.44 4.8 911 0.00 0.00 0.00 0.000
4/28/2017 11:21:20a 284 2 16 22 22 76.1 71.8 29.83 23.44 4.8 912 0.00 0.00 0.00 0.000
4/28/2017 11:22:20a 173 5 16 22 22 76.1 71.8 29.83 23.44 4.8 911 0.00 0.00 0.00 0.000
4/28/2017 11:23:20a 288 4 16 22 22 76.1 71.9 29.83 23.44 4.8 914 0.00 0.00 0.00 0.000
4/28/2017 11:24:20a 239 14 19 22 23 76.1 72.0 29.83 23.44 4.8 916 0.00 0.00 0.00 0.000
4/28/2017 11:25:20a 341 5 19 22 23 76.1 72.1 29.83 23.44 4.8 916 0.00 0.00 0.00 0.000
4/28/2017 11:26:21a 245 7 19 22 23 76.1 72.2 29.83 23.44 4.8 919 0.00 0.00 0.00 0.000
4/28/2017 11:27:21a 289 14 19 22 23 76.1 72.3 29.83 23.44 4.8 921 0.00 0.00 0.00 0.000
4/28/2017 11:28:21a 267 6 19 22 23 76.1 72.5 29.83 23.44 4.9 925 0.00 0.00 0.00 0.000
4/28/2017 11:29:21a 311 3 19 22 22 76.1 72.7 29.83 23.44 4.9 926 0.00 0.00 0.00 0.000
4/28/2017 11:30:21a 264 10 19 22 22 76.1 72.9 29.83 23.44 4.9 933 0.00 0.00 0.00 0.000
4/28/2017 11:31:21a 262 1 19 22 21 76.1 73.0 29.82 23.44 4.9 932 0.00 0.00 0.00 0.000
4/28/2017 11:32:24a 297 1 9 22 21 76.1 73.2 29.83 23.44 4.9 933 0.00 0.00 0.00 0.000
4/28/2017 11:33:27a 291 23 25 22 22 76.1 73.3 29.83 23.44 5.0 933 0.00 0.00 0.00 0.000
4/28/2017 11:34:27a 303 12 25 22 21 76.3 73.4 29.83 23.44 5.0 939 0.00 0.00 0.00 0.000
4/28/2017 11:35:27a 267 5 25 22 21 76.3 73.5 29.83 23.44 5.0 940 0.00 0.00 0.00 0.000
4/28/2017 11:36:27a 214 9 25 22 20 76.3 73.5 29.82 23.44 5.0 942 0.00 0.00 0.00 0.000
4/28/2017 11:37:27a 172 7 25 22 20 76.3 73.5 29.82 23.44 5.0 942 0.00 0.00 0.00 0.000
4/28/2017 11:38:27a 330 7 25 22 20 76.1 73.4 29.82 23.44 5.0 944 0.00 0.00 0.00 0.000
4/28/2017 11:39:27a 283 13 25 22 21 76.1 73.4 29.82 23.44 5.0 947 0.00 0.00 0.00 0.000
4/28/2017 11:40:30a 287 7 25 22 20 76.1 73.4 29.82 23.44 5.1 949 0.00 0.00 0.00 0.000
4/28/2017 11:41:31a 257 13 25 22 20 76.1 73.4 29.82 23.44 5.1 949 0.00 0.00 0.00 0.000
4/28/2017 11:42:31a 306 10 25 22 21 76.1 73.4 29.83 23.44 5.1 949 0.00 0.00 0.00 0.000
4/28/2017 11:43:31a 15 13 25 22 20 76.1 73.5 29.83 23.44 5.1 951 0.00 0.00 0.00 0.000
4/28/2017 11:44:34a 2 9 25 22 20 76.1 73.4 29.83 23.44 5.1 956 0.00 0.00 0.00 0.000
4/28/2017 11:45:34a 291 2 25 22 20 76.3 73.4 29.83 23.44 5.1 956 0.00 0.00 0.00 0.000
4/28/2017 11:46:34a 293 9 25 22 20 76.3 73.4 29.82 23.44 5.1 956 0.00 0.00 0.00 0.000
4/28/2017 11:47:34a 274 11 13 22 21 76.3 73.5 29.82 23.44 5.2 960 0.00 0.00 0.00 0.000
4/28/2017 11:48:34a 283 10 15 22 20 76.3 73.6 29.82 23.44 5.2 960 0.00 0.00 0.00 0.000
4/28/2017 11:49:34a 289 4 15 22 20 76.3 73.6 29.82 23.44 5.2 960 0.00 0.00 0.00 0.000
4/28/2017 11:50:37a 254 6 15 22 20 76.3 73.7 29.82 23.44 5.2 960 0.00 0.00 0.00 0.000
4/28/2017 11:51:37a 224 4 15 22 20 76.3 73.7 29.82 23.44 5.2 960 0.00 0.00 0.00 0.000
4/28/2017 11:52:37a 271 7 21 22 20 76.3 73.8 29.82 23.44 5.2 960 0.00 0.00 0.00 0.000
4/28/2017 11:53:37a 293 16 21 22 20 76.3 73.7 29.82 23.44 5.2 963 0.00 0.00 0.00 0.000
4/28/2017 11:54:37a 251 14 30 22 19 76.3 73.7 29.82 23.44 5.2 967 0.00 0.00 0.00 0.000
4/28/2017 11:55:38a 330 5 30 22 19 76.3 73.6 29.82 23.44 5.3 969 0.00 0.00 0.00 0.000
4/28/2017 11:56:38a 303 0 30 23 19 76.3 73.6 29.82 23.44 5.3 972 0.00 0.00 0.00 0.000
4/28/2017 11:57:38a 304 0 30 23 19 76.3 73.6 29.82 23.44 5.3 972 0.00 0.00 0.00 0.000
4/28/2017 11:58:38a 304 0 30 22 19 76.3 73.6 29.82 23.44 5.3 970 0.00 0.00 0.00 0.000
4/28/2017 11:59:38a 258 2 30 22 19 76.3 73.6 29.82 23.44 5.3 970 0.00 0.00 0.00 0.000
4/28/2017 12:00:41p 239 0 30 22 19 76.3 73.6 29.82 23.44 5.3 972 0.00 0.00 0.00 0.000
4/28/2017 12:01:44p 211 4 30 22 19 76.3 73.7 29.82 23.44 5.3 981 0.00 0.00 0.00 0.000
4/28/2017 12:02:47p 289 14 29 22 19 76.3 73.8 29.82 23.44 5.3 981 0.00 0.00 0.00 0.000
4/28/2017 12:03:47p 247 13 29 22 19 76.3 73.7 29.82 23.44 5.3 983 0.00 0.00 0.00 0.000
4/28/2017 12:04:47p 295 11 29 22 19 76.3 73.8 29.82 23.44 5.4 981 0.00 0.00 0.00 0.000
4/28/2017 12:05:47p 265 14 29 22 19 76.3 73.8 29.82 23.44 5.4 981 0.00 0.00 0.00 0.000
4/28/2017 12:06:47p 278 23 29 22 19 76.3 73.8 29.82 23.44 5.4 981 0.00 0.00 0.00 0.000
4/28/2017 12:07:47p 273 12 29 22 19 76.3 73.8 29.83 23.44 5.4 984 0.00 0.00 0.00 0.000
4/28/2017 12:08:47p 289 12 29 22 19 76.3 73.7 29.83 23.44 5.4 986 0.00 0.00 0.00 0.000
4/28/2017 12:09:48p 243 2 29 23 19 76.3 73.7 29.82 23.44 5.4 990 0.00 0.00 0.00 0.000
4/28/2017 12:10:48p 191 2 29 22 19 76.3 73.7 29.82 23.44 5.4 990 0.00 0.00 0.00 0.000
4/28/2017 12:11:48p 165 3 29 22 19 76.3 73.7 29.81 23.44 5.4 991 0.00 0.00 0.00 0.000
4/28/2017 12:12:48p 199 3 29 22 19 76.3 73.7 29.81 23.44 5.4 988 0.00 0.00 0.00 0.000
4/28/2017 12:13:48p 211 0 29 22 19 76.3 73.8 29.81 23.44 5.5 988 0.00 0.00 0.00 0.000
4/28/2017 12:14:51p 214 0 29 22 19 76.3 74.0 29.81 23.44 5.5 988 0.00 0.00 0.00 0.000
4/28/2017 12:15:57p 206 5 29 22 19 76.3 74.1 29.81 23.44 5.5 990 0.00 0.00 0.00 0.000
4/28/2017 12:16:57p 257 9 9 22 19 76.3 74.2 29.81 23.44 5.5 990 0.00 0.00 0.00 0.000
4/28/2017 12:17:57p 330 1 11 22 19 76.3 74.3 29.81 23.44 5.5 993 0.00 0.00 0.00 0.000
4/28/2017 12:18:57p 212 6 11 22 19 76.3 74.3 29.81 23.44 5.5 993 0.00 0.00 0.00 0.000
4/28/2017 12:19:57p 267 1 11 22 19 76.3 74.4 29.81 23.44 5.5 993 0.00 0.00 0.00 0.000
4/28/2017 12:20:57p 264 4 11 23 19 76.3 74.4 29.81 23.44 5.5 991 0.00 0.00 0.00 0.000
4/28/2017 12:22:00p 189 8 14 23 19 76.3 74.4 29.80 23.44 5.5 995 0.00 0.00 0.00 0.000
4/28/2017 12:23:00p 275 23 23 22 19 76.3 74.5 29.80 23.44 5.5 993 0.00 0.00 0.00 0.000
4/28/2017 12:24:00p 276 8 23 22 19 76.3 74.5 29.80 23.44 5.5 995 0.00 0.00 0.00 0.000
4/28/2017 12:25:00p 299 13 23 22 19 76.3 74.7 29.80 23.44 5.5 998 0.00 0.00 0.00 0.000
4/28/2017 12:26:00p 249 7 23 22 19 76.3 74.7 29.81 23.44 5.5 997 0.00 0.00 0.00 0.000
4/28/2017 12:27:00p 294 0 23 22 18 76.3 74.9 29.80 23.44 5.5 1000 0.00 0.00 0.00 0.000
4/28/2017 12:28:04p 278 9 23 22 18 76.3 74.8 29.81 23.44 5.5 1002 0.00 0.00 0.00 0.000
4/28/2017 12:29:04p 268 9 23 22 18 76.3 74.8 29.80 23.44 5.5 1000 0.00 0.00 0.00 0.000
4/28/2017 12:30:04p 311 11 23 22 18 76.3 74.7 29.80 23.44 5.6 1002 0.00 0.00 0.00 0.000
4/28/2017 12:31:04p 345 13 23 22 18 76.3 74.7 29.81 23.44 5.6 1000 0.00 0.00 0.00 0.000
4/28/2017 12:32:04p 265 4 4 22 18 76.3 74.7 29.81 23.44 5.6 1004 0.00 0.00 0.00 0.000
4/28/2017 12:33:04p 295 12 12 23 18 76.5 74.7 29.80 23.44 5.6 1004 0.00 0.00 0.00 0.000
4/28/2017 12:34:04p 291 15 20 23 18 76.5 74.7 29.80 23.44 5.6 1004 0.00 0.00 0.00 0.000
4/28/2017 12:35:07p 290 15 21 23 18 76.5 74.8 29.80 23.44 5.6 1004 0.00 0.00 0.00 0.000
4/28/2017 12:36:07p 305 7 21 23 18 76.5 74.9 29.81 23.44 5.6 1004 0.00 0.00 0.00 0.000
4/28/2017 12:37:07p 262 12 21 22 18 76.5 74.9 29.80 23.44 5.6 1002 0.00 0.00 0.00 0.000
4/28/2017 12:38:07p 312 11 21 22 18 76.5 75.0 29.80 23.44 5.6 1000 0.00 0.00 0.00 0.000
4/28/2017 12:39:07p 335 10 21 22 18 76.5 75.0 29.80 23.44 5.6 1000 0.00 0.00 0.00 0.000
4/28/2017 12:40:07p 287 9 21 22 18 76.5 75.0 29.80 23.44 5.6 1000 0.00 0.00 0.00 0.000
4/28/2017 12:41:08p 295 7 21 22 18 76.5 75.0 29.80 23.44 5.6 1005 0.00 0.00 0.00 0.000
4/28/2017 12:42:08p 330 13 21 22 18 76.5 74.9 29.80 23.44 5.6 1007 0.00 0.00 0.00 0.000
4/28/2017 12:43:08p 315 3 21 22 17 76.5 74.8 29.80 23.44 5.6 1005 0.00 0.00 0.00 0.000
4/28/2017 12:44:08p 300 9 21 22 18 76.5 74.7 29.80 23.44 5.6 1007 0.00 0.00 0.00 0.000
4/28/2017 12:45:08p 320 16 21 23 18 76.5 74.7 29.80 23.44 5.6 1013 0.00 0.00 0.00 0.000
4/28/2017 12:46:08p 306 5 21 23 18 76.5 74.7 29.80 23.44 5.5 979 0.00 0.00 0.00 0.000
4/28/2017 12:47:08p 330 4 6 23 18 76.5 74.9 29.79 23.44 5.5 979 0.00 0.00 0.00 0.000
4/28/2017 12:48:08p 320 5 8 23 18 76.5 75.0 29.79 23.44 5.4 946 0.00 0.00 0.00 0.000
4/28/2017 12:49:08p 295 11 11 23 18 76.5 75.1 29.79 23.44 5.4 986 0.00 0.00 0.00 0.000
4/28/2017 12:50:14p 296 13 17 22 18 76.5 75.2 29.80 23.44 5.4 977 0.00 0.00 0.00 0.000
4/28/2017 12:51:14p 320 13 17 22 18 76.5 75.2 29.80 23.44 5.5 998 0.00 0.00 0.00 0.000
4/28/2017 12:52:14p 23 9 17 22 18 76.5 75.3 29.80 23.44 5.6 998 0.00 0.00 0.00 0.000
4/28/2017 12:53:17p 352 11 17 22 17 76.5 75.4 29.79 23.44 5.6 1011 0.00 0.00 0.00 0.000

© All rights reserved. Unauthorized duplication or distribution is prohibited

Never base important decisions on this or any weather information obtained from the Internet

California State University, San Bernardino
5500 University Parkway, San Bernardino, CA. 92407
Phone: (909) 537-7558, Email: Weather Master
Last Updated: